Time,TemperatureF,DewpointF,PressureIn,WindDirection,WindDirectionDegrees,WindSpeedMPH,WindSpeedGustMPH,Humidity,HourlyPrecipIn,Conditions,Clouds,dailyrainin,SolarRadiationWatts/m^2,SoftwareType,DateUTC
2013-06-10 00:02:00,60.4,59.0,29.86,SE,126,1.1,1.1,95,0.00,RA,,0.00,0.0,WeatherDisplay:10.37,2013-06-10 05:02:00,
2013-06-10 00:07:00,60.3,59.2,29.86,SE,134,2.3,2.3,96,0.00,RA,,0.00,0.0,WeatherDisplay:10.37,2013-06-10 05:07:00,
2013-06-10 00:12:00,60.3,59.2,29.85,SE,136,0.0,0.0,96,0.00,OVC,,0.00,0.0,WeatherDisplay:10.37,2013-06-10 05:12:00,
2013-06-10 00:17:00,60.2,59.1,29.86,SE,136,0.0,0.0,96,0.00,OVC,,0.00,0.0,WeatherDisplay:10.37,2013-06-10 05:17:00,
2013-06-10 00:22:00,60.0,58.9,29.86,South,189,0.0,0.0,96,0.00,OVC,,0.00,0.0,WeatherDisplay:10.37,2013-06-10 05:22:00,
2013-06-10 00:27:00,59.8,58.7,29.86,South,189,0.0,0.0,96,0.00,OVC,,0.00,0.0,WeatherDisplay:10.37,2013-06-10 05:27:00,
2013-06-10 00:32:00,59.6,58.5,29.86,South,189,0.0,0.0,96,0.00,OVC,,0.00,0.0,WeatherDisplay:10.37,2013-06-10 05:32:00,
2013-06-10 00:37:00,59.5,58.4,29.86,South,189,0.0,0.0,96,0.00,OVC,,0.00,0.0,WeatherDisplay:10.37,2013-06-10 05:37:00,
2013-06-10 00:42:00,59.4,58.3,29.85,South,189,0.0,0.0,96,0.00,OVC,,0.00,0.0,WeatherDisplay:10.37,2013-06-10 05:42:00,
2013-06-10 00:47:00,59.2,58.1,29.85,South,189,0.0,0.0,96,0.00,OVC,,0.00,0.0,WeatherDisplay:10.37,2013-06-10 05:47:00,
2013-06-10 00:52:00,59.1,58.0,29.85,South,189,0.0,0.0,96,0.00,OVC,,0.00,0.0,WeatherDisplay:10.37,2013-06-10 05:52:00,
2013-06-10 00:57:00,59.0,57.9,29.85,South,189,0.0,0.0,96,0.00,OVC,,0.00,0.0,WeatherDisplay:10.37,2013-06-10 05:57:00,
2013-06-10 01:02:00,59.0,57.9,29.85,South,189,0.0,0.0,96,0.00,OVC,,0.00,0.0,WeatherDisplay:10.37,2013-06-10 06:02:00,
2013-06-10 01:07:00,58.9,58.1,29.84,South,189,0.0,0.0,97,0.00,OVC,,0.00,0.0,WeatherDisplay:10.37,2013-06-10 06:07:00,
2013-06-10 01:12:00,58.8,58.0,29.85,South,189,0.0,0.0,97,0.00,OVC,,0.00,0.0,WeatherDisplay:10.37,2013-06-10 06:12:00,
2013-06-10 01:17:00,58.7,57.9,29.85,South,189,0.0,0.0,97,0.00,OVC,,0.00,0.0,WeatherDisplay:10.37,2013-06-10 06:17:00,
2013-06-10 01:22:00,58.7,57.9,29.85,South,189,0.0,0.0,97,0.00,OVC,,0.00,0.0,WeatherDisplay:10.37,2013-06-10 06:22:00,
2013-06-10 01:27:00,58.7,57.9,29.85,South,189,0.0,0.0,97,0.00,OVC,,0.00,0.0,WeatherDisplay:10.37,2013-06-10 06:27:00,
2013-06-10 01:32:00,58.6,57.8,29.85,South,189,0.0,0.0,97,0.00,OVC,,0.00,0.0,WeatherDisplay:10.37,2013-06-10 06:32:00,
2013-06-10 01:37:00,58.6,57.8,29.85,South,189,0.0,0.0,97,0.00,OVC,,0.00,0.0,WeatherDisplay:10.37,2013-06-10 06:37:00,
2013-06-10 01:42:00,58.6,57.8,29.85,South,189,0.0,0.0,97,0.00,OVC,,0.00,0.0,WeatherDisplay:10.37,2013-06-10 06:42:00,
2013-06-10 01:47:00,58.6,57.8,29.85,South,189,0.0,0.0,97,0.00,OVC,,0.00,0.0,WeatherDisplay:10.37,2013-06-10 06:47:00,
2013-06-10 01:52:00,58.6,57.8,29.84,South,189,0.0,0.0,97,0.00,OVC,,0.00,0.0,WeatherDisplay:10.37,2013-06-10 06:52:00,
2013-06-10 01:57:00,58.5,57.7,29.84,South,189,0.0,0.0,97,0.00,OVC,,0.00,0.0,WeatherDisplay:10.37,2013-06-10 06:57:00,
2013-06-10 02:02:00,58.4,57.6,29.84,South,189,0.0,0.0,97,0.00,OVC,,0.00,0.0,WeatherDisplay:10.37,2013-06-10 07:02:00,
2013-06-10 02:07:00,58.3,57.5,29.84,South,189,0.0,0.0,97,0.00,OVC,,0.00,0.0,WeatherDisplay:10.37,2013-06-10 07:07:00,
2013-06-10 02:12:00,58.2,57.4,29.84,South,189,0.0,0.0,97,0.00,OVC,,0.00,0.0,WeatherDisplay:10.37,2013-06-10 07:12:00,
2013-06-10 02:17:00,58.2,57.4,29.83,South,189,0.0,0.0,97,0.00,OVC,,0.00,0.0,WeatherDisplay:10.37,2013-06-10 07:17:00,
2013-06-10 02:22:00,58.0,57.2,29.83,South,189,0.0,0.0,97,0.00,OVC,,0.00,0.0,WeatherDisplay:10.37,2013-06-10 07:22:00,
2013-06-10 02:27:00,58.0,57.2,29.83,South,189,0.0,0.0,97,0.00,OVC,,0.00,0.0,WeatherDisplay:10.37,2013-06-10 07:27:00,
2013-06-10 02:32:00,57.8,57.0,29.83,South,189,0.0,0.0,97,0.00,OVC,,0.00,0.0,WeatherDisplay:10.37,2013-06-10 07:32:00,
2013-06-10 02:37:00,57.7,56.9,29.83,South,189,0.0,0.0,97,0.00,OVC,,0.00,0.0,WeatherDisplay:10.37,2013-06-10 07:37:00,
2013-06-10 02:42:00,57.6,56.8,29.83,South,189,0.0,0.0,97,0.00,OVC,,0.00,0.0,WeatherDisplay:10.37,2013-06-10 07:42:00,
2013-06-10 02:47:00,57.5,56.7,29.82,South,189,0.0,0.0,97,0.00,OVC,,0.00,0.0,WeatherDisplay:10.37,2013-06-10 07:47:00,
2013-06-10 02:52:00,57.2,56.4,29.82,South,189,0.0,0.0,97,0.00,OVC,,0.00,0.0,WeatherDisplay:10.37,2013-06-10 07:52:00,
2013-06-10 02:57:00,57.0,56.2,29.82,South,189,0.0,0.0,97,0.00,OVC,,0.00,0.0,WeatherDisplay:10.37,2013-06-10 07:57:00,
2013-06-10 03:02:00,56.8,56.0,29.82,South,189,0.0,0.0,97,0.00,OVC,,0.00,0.0,WeatherDisplay:10.37,2013-06-10 08:02:00,
2013-06-10 03:07:00,56.6,55.8,29.82,South,189,0.0,0.0,97,0.00,OVC,,0.00,0.0,WeatherDisplay:10.37,2013-06-10 08:07:00,
2013-06-10 03:12:00,56.4,55.6,29.82,South,189,0.0,0.0,97,0.00,OVC,,0.00,0.0,WeatherDisplay:10.37,2013-06-10 08:12:00,
2013-06-10 03:17:00,56.2,55.4,29.82,South,189,0.0,0.0,97,0.00,OVC,,0.00,0.0,WeatherDisplay:10.37,2013-06-10 08:17:00,
2013-06-10 03:22:00,56.0,54.9,29.82,South,189,0.0,0.0,96,0.00,OVC,,0.00,0.0,WeatherDisplay:10.37,2013-06-10 08:22:00,
2013-06-10 03:27:00,55.9,54.8,29.82,South,189,0.0,0.0,96,0.00,OVC,,0.00,0.0,WeatherDisplay:10.37,2013-06-10 08:27:00,
2013-06-10 03:32:00,55.7,54.9,29.82,South,189,0.0,0.0,97,0.00,OVC,,0.00,0.0,WeatherDisplay:10.37,2013-06-10 08:32:00,
2013-06-10 03:38:00,55.5,54.4,29.82,South,189,0.0,0.0,96,0.00,OVC,,0.00,0.0,WeatherDisplay:10.37,2013-06-10 08:38:00,
2013-06-10 03:43:00,55.3,54.2,29.82,South,189,0.0,0.0,96,0.00,OVC,,0.00,0.0,WeatherDisplay:10.37,2013-06-10 08:43:00,
2013-06-10 03:48:00,55.2,54.1,29.82,South,189,0.0,0.0,96,0.00,OVC,,0.00,0.0,WeatherDisplay:10.37,2013-06-10 08:48:00,
2013-06-10 03:53:00,55.1,54.3,29.82,South,189,0.0,0.0,97,0.00,OVC,,0.00,0.0,WeatherDisplay:10.37,2013-06-10 08:53:00,
2013-06-10 03:58:00,55.1,54.3,29.82,South,189,0.0,0.0,97,0.00,OVC,,0.00,0.0,WeatherDisplay:10.37,2013-06-10 08:58:00,
2013-06-10 04:03:00,55.0,54.2,29.82,South,189,0.0,0.0,97,0.00,BKN,,0.00,0.0,WeatherDisplay:10.37,2013-06-10 09:03:00,
2013-06-10 04:08:00,55.0,54.2,29.82,South,189,0.0,0.0,97,0.00,BKN,,0.00,0.0,WeatherDisplay:10.37,2013-06-10 09:08:00,
2013-06-10 04:13:00,55.1,54.3,29.82,South,189,0.0,0.0,97,0.00,BKN,,0.00,0.0,WeatherDisplay:10.37,2013-06-10 09:13:00,
2013-06-10 04:18:00,55.1,54.3,29.82,South,189,0.0,0.0,97,0.00,SCT,,0.00,0.0,WeatherDisplay:10.37,2013-06-10 09:18:00,
2013-06-10 04:23:00,55.1,54.3,29.82,South,189,0.0,0.0,97,0.00,SCT,,0.00,0.0,WeatherDisplay:10.37,2013-06-10 09:23:00,
2013-06-10 04:28:00,55.1,54.3,29.82,South,189,0.0,0.0,97,0.00,SCT,,0.00,0.0,WeatherDisplay:10.37,2013-06-10 09:28:00,
2013-06-10 04:33:00,55.1,54.3,29.82,South,189,0.0,0.0,97,0.00,BKN,,0.00,0.0,WeatherDisplay:10.37,2013-06-10 09:33:00,
2013-06-10 04:38:00,55.1,54.3,29.82,South,189,0.0,0.0,97,0.00,BKN,,0.00,0.0,WeatherDisplay:10.37,2013-06-10 09:38:00,
2013-06-10 04:43:00,55.2,54.6,29.82,South,189,0.0,0.0,98,0.00,BKN,,0.00,0.0,WeatherDisplay:10.37,2013-06-10 09:43:00,
2013-06-10 04:48:00,55.1,54.5,29.83,South,189,0.0,0.0,98,0.00,BKN,,0.00,0.0,WeatherDisplay:10.37,2013-06-10 09:48:00,
2013-06-10 04:53:00,55.1,54.5,29.83,South,189,0.0,0.0,98,0.00,BKN,,0.00,0.0,WeatherDisplay:10.37,2013-06-10 09:53:00,
2013-06-10 04:58:00,55.1,54.5,29.83,South,189,0.0,0.0,98,0.00,BKN,,0.00,0.0,WeatherDisplay:10.37,2013-06-10 09:58:00,
2013-06-10 05:03:00,55.1,54.3,29.83,South,189,0.0,0.0,97,0.00,BKN,,0.00,0.0,WeatherDisplay:10.37,2013-06-10 10:03:00,
2013-06-10 05:08:00,55.1,54.5,29.83,South,189,0.0,0.0,98,0.00,BKN,,0.00,0.0,WeatherDisplay:10.37,2013-06-10 10:08:00,
2013-06-10 05:13:00,55.1,54.5,29.83,South,189,0.0,0.0,98,0.00,BKN,,0.00,0.0,WeatherDisplay:10.37,2013-06-10 10:13:00,
2013-06-10 05:18:00,55.1,54.3,29.83,South,189,0.0,0.0,97,0.00,SCT,,0.00,0.0,WeatherDisplay:10.37,2013-06-10 10:18:00,
2013-06-10 05:23:00,55.0,54.4,29.83,South,189,0.0,0.0,98,0.00,SCT,,0.00,0.0,WeatherDisplay:10.37,2013-06-10 10:23:00,
2013-06-10 05:28:00,55.0,54.4,29.83,South,189,0.0,0.0,98,0.00,SCT,,0.00,0.0,WeatherDisplay:10.37,2013-06-10 10:28:00,
2013-06-10 05:33:00,55.0,54.4,29.83,South,189,0.0,0.0,98,0.00,OVC,,0.00,0.0,WeatherDisplay:10.37,2013-06-10 10:33:00,
2013-06-10 05:38:00,55.0,54.4,29.83,South,189,0.0,0.0,98,0.00,OVC,,0.00,0.0,WeatherDisplay:10.37,2013-06-10 10:38:00,
2013-06-10 05:43:00,55.0,54.4,29.82,South,189,0.0,0.0,98,0.00,OVC,,0.00,5.0,WeatherDisplay:10.37,2013-06-10 10:43:00,
2013-06-10 05:48:00,54.9,54.3,29.82,South,189,0.0,0.0,98,0.00,OVC,,0.00,5.0,WeatherDisplay:10.37,2013-06-10 10:48:00,
2013-06-10 05:53:00,54.8,54.0,29.82,South,189,0.0,0.0,97,0.00,OVC,,0.00,7.0,WeatherDisplay:10.37,2013-06-10 10:53:00,
2013-06-10 05:58:00,54.7,54.1,29.82,South,189,0.0,0.0,98,0.00,OVC,,0.00,7.0,WeatherDisplay:10.37,2013-06-10 10:58:00,
2013-06-10 06:03:00,54.5,53.7,29.83,South,189,0.0,0.0,97,0.00,OVC,,0.00,9.0,WeatherDisplay:10.37,2013-06-10 11:03:00,
2013-06-10 06:08:00,54.4,53.6,29.83,South,189,0.0,0.0,97,0.00,OVC,,0.00,12.0,WeatherDisplay:10.37,2013-06-10 11:08:00,
2013-06-10 06:13:00,54.4,53.6,29.83,South,189,0.0,0.0,97,0.00,OVC,,0.00,19.0,WeatherDisplay:10.37,2013-06-10 11:13:00,
2013-06-10 06:18:00,54.3,53.5,29.83,South,189,0.0,0.0,97,0.00,OVC,,0.00,21.0,WeatherDisplay:10.37,2013-06-10 11:18:00,
2013-06-10 06:23:00,54.2,53.4,29.83,South,189,0.0,0.0,97,0.00,OVC,,0.00,21.0,WeatherDisplay:10.37,2013-06-10 11:23:00,
2013-06-10 06:28:00,54.2,53.6,29.83,South,189,0.0,0.0,98,0.00,OVC,,0.00,23.0,WeatherDisplay:10.37,2013-06-10 11:28:00,
2013-06-10 06:33:00,54.2,53.6,29.83,South,189,0.0,0.0,98,0.00,OVC,,0.00,25.0,WeatherDisplay:10.37,2013-06-10 11:33:00,
2013-06-10 06:38:00,54.2,53.6,29.83,South,189,0.0,0.0,98,0.00,OVC,,0.00,26.0,WeatherDisplay:10.37,2013-06-10 11:38:00,
2013-06-10 06:43:00,54.4,53.8,29.83,South,189,0.0,0.0,98,0.00,OVC,,0.00,28.0,WeatherDisplay:10.37,2013-06-10 11:43:00,
2013-06-10 06:48:00,54.6,54.0,29.83,South,189,0.0,0.0,98,0.00,OVC,,0.00,35.0,WeatherDisplay:10.37,2013-06-10 11:48:00,
2013-06-10 06:53:00,54.9,54.3,29.83,South,189,0.0,0.0,98,0.00,OVC,,0.00,56.0,WeatherDisplay:10.37,2013-06-10 11:53:00,
2013-06-10 06:58:00,55.1,54.5,29.83,South,189,0.0,0.0,98,0.00,OVC,,0.00,63.0,WeatherDisplay:10.37,2013-06-10 11:58:00,
2013-06-10 07:03:00,55.3,54.7,29.83,South,189,0.0,0.0,98,0.00,OVC,,0.00,51.0,WeatherDisplay:10.37,2013-06-10 12:03:00,
2013-06-10 07:08:00,55.6,55.0,29.84,South,189,0.0,0.0,98,0.00,OVC,,0.00,51.0,WeatherDisplay:10.37,2013-06-10 12:08:00,
2013-06-10 07:13:00,55.8,55.2,29.84,South,189,0.0,0.0,98,0.00,OVC,,0.00,56.0,WeatherDisplay:10.37,2013-06-10 12:13:00,
2013-06-10 07:18:00,56.0,55.4,29.84,South,189,0.0,0.0,98,0.00,OVC,,0.00,60.0,WeatherDisplay:10.37,2013-06-10 12:18:00,
2013-06-10 07:23:00,56.3,55.7,29.84,South,190,0.0,0.0,98,0.00,OVC,,0.00,65.0,WeatherDisplay:10.37,2013-06-10 12:23:00,
2013-06-10 07:28:00,56.6,56.0,29.84,South,190,0.0,0.0,98,0.00,OVC,,0.00,53.0,WeatherDisplay:10.37,2013-06-10 12:28:00,
2013-06-10 07:33:00,56.8,56.2,29.84,South,190,0.0,0.0,98,0.00,OVC,,0.00,46.0,WeatherDisplay:10.37,2013-06-10 12:33:00,
2013-06-10 07:38:00,57.1,56.5,29.84,South,190,0.0,0.0,98,0.00,OVC,,0.00,62.0,WeatherDisplay:10.37,2013-06-10 12:38:00,
2013-06-10 07:43:00,57.3,57.0,29.84,South,190,0.0,0.0,99,0.00,OVC,,0.00,58.0,WeatherDisplay:10.37,2013-06-10 12:43:00,
2013-06-10 07:48:00,57.6,57.0,29.84,South,190,0.0,0.0,98,0.00,OVC,,0.00,72.0,WeatherDisplay:10.37,2013-06-10 12:48:00,
2013-06-10 07:53:00,57.9,57.3,29.84,South,190,0.0,0.0,98,0.00,OVC,,0.00,91.0,WeatherDisplay:10.37,2013-06-10 12:53:00,
2013-06-10 07:58:00,58.3,57.7,29.84,South,190,0.0,0.0,98,0.00,OVC,,0.00,113.0,WeatherDisplay:10.37,2013-06-10 12:58:00,
2013-06-10 08:03:00,58.6,58.0,29.84,SSW,196,1.1,1.1,98,0.00,OVC,,0.00,100.0,WeatherDisplay:10.37,2013-06-10 13:03:00,
2013-06-10 08:08:00,58.9,58.6,29.84,SSW,196,0.0,0.0,99,0.00,OVC,,0.00,104.0,WeatherDisplay:10.37,2013-06-10 13:08:00,
2013-06-10 08:13:00,59.3,59.0,29.84,SSW,196,0.0,0.0,99,0.00,OVC,,0.00,104.0,WeatherDisplay:10.37,2013-06-10 13:13:00,
2013-06-10 08:18:00,59.7,59.4,29.84,SSW,196,0.0,0.0,99,0.00,OVC,,0.00,125.0,WeatherDisplay:10.37,2013-06-10 13:18:00,
2013-06-10 08:23:00,60.0,59.7,29.84,SSW,196,0.0,0.0,99,0.00,OVC,,0.00,121.0,WeatherDisplay:10.37,2013-06-10 13:23:00,
2013-06-10 08:28:00,60.4,60.1,29.84,SSW,194,1.0,1.0,99,0.00,OVC,,0.00,93.0,WeatherDisplay:10.37,2013-06-10 13:28:00,
2013-06-10 08:33:00,60.5,60.2,29.83,South,186,0.0,0.1,99,0.00,OVC,,0.00,58.0,WeatherDisplay:10.37,2013-06-10 13:33:00,
2013-06-10 08:38:00,60.5,60.2,29.84,South,186,0.0,0.0,99,0.00,OVC,,0.00,125.0,WeatherDisplay:10.37,2013-06-10 13:38:00,
2013-06-10 08:43:00,60.6,60.3,29.83,WSW,237,3.5,3.5,99,0.00,OVC,,0.00,142.0,WeatherDisplay:10.37,2013-06-10 13:43:00,
2013-06-10 08:48:00,60.8,60.5,29.83,SE,144,2.3,0.0,99,0.00,OVC,,0.00,202.0,WeatherDisplay:10.37,2013-06-10 13:48:00,
2013-06-10 08:53:00,61.3,61.0,29.83,SE,144,1.0,0.0,99,0.00,OVC,,0.00,193.0,WeatherDisplay:10.37,2013-06-10 13:53:00,
2013-06-10 08:58:00,61.6,61.3,29.83,SSE,155,1.1,1.1,99,0.00,OVC,,0.00,195.0,WeatherDisplay:10.37,2013-06-10 13:58:00,
2013-06-10 09:03:00,62.1,61.8,29.83,SSE,156,0.0,0.4,99,0.00,OVC,,0.00,195.0,WeatherDisplay:10.37,2013-06-10 14:03:00,
2013-06-10 09:08:00,62.3,62.0,29.83,SSE,156,0.0,0.0,99,0.00,OVC,,0.00,181.0,WeatherDisplay:10.37,2013-06-10 14:08:00,
2013-06-10 09:13:00,62.5,61.6,29.83,SW,217,2.3,2.3,97,0.00,OVC,,0.00,146.0,WeatherDisplay:10.37,2013-06-10 14:13:00,
2013-06-10 09:18:00,62.7,61.2,29.83,SW,217,0.0,0.0,95,0.00,OVC,,0.00,141.0,WeatherDisplay:10.37,2013-06-10 14:18:00,
2013-06-10 09:23:00,62.9,61.4,29.83,SW,220,2.3,2.3,95,0.00,OVC,,0.00,149.0,WeatherDisplay:10.37,2013-06-10 14:23:00,
2013-06-10 09:29:00,63.1,61.0,29.84,SW,220,1.0,1.0,93,0.00,OVC,,0.00,197.0,WeatherDisplay:10.37,2013-06-10 14:29:00,
2013-06-10 09:33:00,63.3,61.2,29.83,SW,220,0.0,0.0,93,0.00,OVC,,0.00,206.0,WeatherDisplay:10.37,2013-06-10 14:33:00,
2013-06-10 09:39:00,63.6,61.5,29.84,SW,220,0.0,0.0,93,0.00,OVC,,0.00,174.0,WeatherDisplay:10.37,2013-06-10 14:39:00,
2013-06-10 09:44:00,63.9,62.1,29.84,SW,220,0.0,0.0,94,0.00,OVC,,0.00,178.0,WeatherDisplay:10.37,2013-06-10 14:44:00,
2013-06-10 09:49:00,64.1,61.4,29.84,SW,221,2.3,2.3,91,0.00,OVC,,0.00,207.0,WeatherDisplay:10.37,2013-06-10 14:49:00,
2013-06-10 09:54:00,64.2,60.9,29.84,SW,230,3.5,3.5,89,0.00,OVC,,0.00,236.0,WeatherDisplay:10.37,2013-06-10 14:54:00,
2013-06-10 09:59:00,64.4,61.4,29.84,SW,230,0.0,0.0,90,0.00,OVC,,0.00,186.0,WeatherDisplay:10.37,2013-06-10 14:59:00,
2013-06-10 10:04:00,64.5,60.9,29.84,SW,230,0.0,0.0,88,0.00,OVC,,0.00,239.0,WeatherDisplay:10.37,2013-06-10 15:04:00,
2013-06-10 10:09:00,64.8,62.1,29.84,SW,230,1.1,1.1,91,0.00,OVC,,0.00,265.0,WeatherDisplay:10.37,2013-06-10 15:09:00,
2013-06-10 10:14:00,65.2,63.1,29.84,SW,230,0.0,0.1,93,0.00,OVC,,0.00,278.0,WeatherDisplay:10.37,2013-06-10 15:14:00,
2013-06-10 10:19:00,65.4,62.4,29.84,SSW,213,2.3,2.3,90,0.00,BKN,,0.00,320.0,WeatherDisplay:10.37,2013-06-10 15:19:00,
2013-06-10 10:24:00,65.6,62.6,29.84,SSW,213,0.0,0.0,90,0.00,BKN,,0.00,318.0,WeatherDisplay:10.37,2013-06-10 15:24:00,
2013-06-10 10:29:00,65.9,63.2,29.84,SSW,213,0.0,0.0,91,0.00,BKN,,0.00,304.0,WeatherDisplay:10.37,2013-06-10 15:29:00,
2013-06-10 10:34:00,66.0,62.3,29.84,ESE,121,0.0,0.0,88,0.00,BKN,,0.00,176.0,WeatherDisplay:10.37,2013-06-10 15:34:00,
2013-06-10 10:39:00,66.1,62.1,29.83,ESE,123,1.1,0.0,87,0.00,BKN,,0.00,227.0,WeatherDisplay:10.37,2013-06-10 15:39:00,
2013-06-10 10:44:00,66.3,62.3,29.83,SE,138,2.0,2.0,87,0.00,BKN,,0.00,287.0,WeatherDisplay:10.37,2013-06-10 15:44:00,
2013-06-10 10:49:00,66.5,62.2,29.83,SE,131,2.3,2.3,86,0.00,BKN,,0.00,294.0,WeatherDisplay:10.37,2013-06-10 15:49:00,
2013-06-10 10:54:00,66.6,62.3,29.83,SE,131,0.0,0.0,86,0.00,BKN,,0.00,243.0,WeatherDisplay:10.37,2013-06-10 15:54:00,
2013-06-10 10:59:00,66.7,62.7,29.83,SE,131,0.0,0.0,87,0.00,BKN,,0.00,185.0,WeatherDisplay:10.37,2013-06-10 15:59:00,
2013-06-10 11:04:00,66.8,63.1,29.83,SE,131,0.0,0.0,88,0.00,BKN,,0.00,225.0,WeatherDisplay:10.37,2013-06-10 16:04:00,
2013-06-10 11:09:00,66.9,62.9,29.83,SE,131,0.0,0.0,87,0.00,BKN,,0.00,229.0,WeatherDisplay:10.37,2013-06-10 16:09:00,
2013-06-10 11:14:00,67.2,63.2,29.83,SE,131,0.0,0.0,87,0.00,BKN,,0.00,264.0,WeatherDisplay:10.37,2013-06-10 16:14:00,
2013-06-10 11:19:00,67.5,62.2,29.83,SE,131,2.3,2.3,83,0.00,BKN,,0.00,895.0,WeatherDisplay:10.37,2013-06-10 16:19:00,
2013-06-10 11:24:00,67.8,62.1,29.83,SE,124,2.0,2.0,82,0.00,BKN,,0.00,867.0,WeatherDisplay:10.37,2013-06-10 16:24:00,
2013-06-10 11:29:00,68.7,63.0,29.83,ESE,115,3.5,3.5,82,0.00,BKN,,0.00,919.0,WeatherDisplay:10.37,2013-06-10 16:29:00,
2013-06-10 11:34:00,69.9,63.4,29.82,ESE,109,2.3,2.3,80,0.00,BKN,,0.00,960.0,WeatherDisplay:10.37,2013-06-10 16:34:00,
2013-06-10 11:39:00,70.7,62.4,29.82,SSW,205,2.3,2.3,75,0.00,BKN,,0.00,1007.0,WeatherDisplay:10.37,2013-06-10 16:39:00,
2013-06-10 11:44:00,70.9,63.7,29.82,SE,146,3.5,3.5,78,0.00,BKN,,0.00,220.0,WeatherDisplay:10.37,2013-06-10 16:44:00,
2013-06-10 11:49:00,70.5,63.7,29.82,West,279,3.5,3.5,79,0.00,BKN,,0.00,155.0,WeatherDisplay:10.37,2013-06-10 16:49:00,
2013-06-10 11:54:00,70.3,63.1,29.82,WNW,282,0.0,0.0,78,0.00,BKN,,0.00,213.0,WeatherDisplay:10.37,2013-06-10 16:54:00,
2013-06-10 11:59:00,70.1,61.8,29.82,West,277,2.3,2.3,75,0.00,BKN,,0.00,541.0,WeatherDisplay:10.37,2013-06-10 16:59:00,
2013-06-10 12:04:00,70.2,62.3,29.83,SSW,207,2.3,2.3,76,0.00,BKN,,0.00,232.0,WeatherDisplay:10.37,2013-06-10 17:04:00,
2013-06-10 12:09:00,70.3,63.5,29.83,WNW,284,2.3,2.3,79,0.00,BKN,,0.00,227.0,WeatherDisplay:10.37,2013-06-10 17:09:00,
2013-06-10 12:14:00,70.1,62.6,29.83,SSW,200,1.1,1.1,77,0.00,BKN,,0.00,186.0,WeatherDisplay:10.37,2013-06-10 17:14:00,
2013-06-10 12:19:00,70.1,62.9,29.83,SW,236,2.3,2.3,78,0.00,OVC,,0.00,262.0,WeatherDisplay:10.37,2013-06-10 17:19:00,
2013-06-10 12:24:00,70.6,64.8,29.82,WSW,247,1.1,1.1,82,0.00,OVC,,0.00,912.0,WeatherDisplay:10.37,2013-06-10 17:24:00,
2013-06-10 12:29:00,71.4,64.2,29.82,East,99,2.3,2.3,78,0.00,OVC,,0.00,977.0,WeatherDisplay:10.37,2013-06-10 17:29:00,
2013-06-10 12:34:00,71.2,63.2,29.82,East,99,2.3,2.3,76,0.00,OVC,,0.00,264.0,WeatherDisplay:10.37,2013-06-10 17:34:00,
2013-06-10 12:39:00,70.8,63.6,29.82,SE,128,1.1,1.1,78,0.00,OVC,,0.00,160.0,WeatherDisplay:10.37,2013-06-10 17:39:00,
2013-06-10 12:44:00,70.6,61.1,29.82,SE,144,1.1,1.1,72,0.00,OVC,,0.00,144.0,WeatherDisplay:10.37,2013-06-10 17:44:00,
2013-06-10 12:49:00,70.5,62.2,29.82,SE,144,1.1,1.1,75,0.00,OVC,,0.00,232.0,WeatherDisplay:10.37,2013-06-10 17:49:00,
2013-06-10 12:54:00,70.5,62.9,29.81,SE,144,1.1,1.1,77,0.00,OVC,,0.00,264.0,WeatherDisplay:10.37,2013-06-10 17:54:00,
2013-06-10 12:59:00,70.7,63.1,29.82,SE,144,1.1,0.0,77,0.00,OVC,,0.00,260.0,WeatherDisplay:10.37,2013-06-10 17:59:00,
2013-06-10 13:04:00,71.1,62.4,29.81,SW,215,2.3,2.3,74,0.00,OVC,,0.00,404.0,WeatherDisplay:10.37,2013-06-10 18:04:00,
2013-06-10 13:09:00,71.5,62.4,29.81,WSW,240,2.3,2.3,73,0.00,OVC,,0.00,332.0,WeatherDisplay:10.37,2013-06-10 18:09:00,
2013-06-10 13:14:00,71.6,62.1,29.81,WSW,241,1.1,1.1,72,0.00,OVC,,0.00,169.0,WeatherDisplay:10.37,2013-06-10 18:14:00,
2013-06-10 13:19:00,71.8,62.3,29.81,SSW,211,0.0,0.0,72,0.00,OVC,,0.00,223.0,WeatherDisplay:10.37,2013-06-10 18:19:00,
2013-06-10 13:24:00,71.7,63.7,29.81,SSW,211,1.1,0.0,76,0.00,OVC,,0.00,294.0,WeatherDisplay:10.37,2013-06-10 18:24:00,
2013-06-10 13:29:00,71.7,64.1,29.81,SSW,211,1.1,1.1,77,0.00,OVC,,0.00,241.0,WeatherDisplay:10.37,2013-06-10 18:29:00,
2013-06-10 13:34:00,71.9,62.8,29.81,WSW,246,2.3,0.0,73,0.00,OVC,,0.00,399.0,WeatherDisplay:10.37,2013-06-10 18:34:00,
2013-06-10 13:39:00,72.6,62.7,29.81,North,350,2.3,2.3,71,0.00,OVC,,0.00,1083.0,WeatherDisplay:10.37,2013-06-10 18:39:00,
2013-06-10 13:44:00,72.9,62.5,29.80,SSW,203,2.0,2.0,70,0.00,OVC,,0.00,146.0,WeatherDisplay:10.37,2013-06-10 18:44:00,
2013-06-10 13:49:00,72.9,62.9,29.80,WNW,302,3.5,3.5,71,0.00,OVC,,0.00,207.0,WeatherDisplay:10.37,2013-06-10 18:49:00,
2013-06-10 13:54:00,72.6,62.7,29.80,SW,225,3.5,3.5,71,0.00,OVC,,0.00,225.0,WeatherDisplay:10.37,2013-06-10 18:54:00,
2013-06-10 13:59:00,72.6,63.4,29.80,West,279,1.1,1.1,73,0.00,OVC,,0.00,434.0,WeatherDisplay:10.37,2013-06-10 18:59:00,
2013-06-10 14:04:00,73.3,62.5,29.80,WSW,250,3.5,3.5,69,0.00,OVC,,0.00,984.0,WeatherDisplay:10.37,2013-06-10 19:04:00,
2013-06-10 14:09:00,73.7,63.3,29.80,WSW,247,2.3,2.3,70,0.00,OVC,,0.00,991.0,WeatherDisplay:10.37,2013-06-10 19:09:00,
2013-06-10 14:14:00,74.6,65.0,29.80,SSW,208,2.3,2.3,72,0.00,OVC,,0.00,990.0,WeatherDisplay:10.37,2013-06-10 19:14:00,
2013-06-10 14:19:00,75.3,63.2,29.80,WNW,300,1.1,1.3,66,0.00,BKN,,0.00,965.0,WeatherDisplay:10.37,2013-06-10 19:19:00,
2013-06-10 14:24:00,75.6,63.4,29.80,SSW,202,1.1,1.4,66,0.00,BKN,,0.00,963.0,WeatherDisplay:10.37,2013-06-10 19:24:00,
2013-06-10 14:29:00,75.4,63.7,29.80,WNW,292,1.1,1.1,67,0.00,BKN,,0.00,269.0,WeatherDisplay:10.37,2013-06-10 19:29:00,
2013-06-10 14:34:00,75.4,62.4,29.79,WSW,246,1.1,1.1,64,0.00,BKN,,0.00,207.0,WeatherDisplay:10.37,2013-06-10 19:34:00,
2013-06-10 14:39:00,75.1,63.4,29.80,SW,233,2.3,2.3,67,0.00,BKN,,0.00,236.0,WeatherDisplay:10.37,2013-06-10 19:39:00,
2013-06-10 14:44:00,74.9,62.3,29.80,SSW,197,2.3,2.3,65,0.00,BKN,,0.00,255.0,WeatherDisplay:10.37,2013-06-10 19:44:00,
2013-06-10 14:49:00,75.0,63.7,29.80,SSW,213,2.3,2.3,68,0.00,BKN,,0.00,260.0,WeatherDisplay:10.37,2013-06-10 19:49:00,
2013-06-10 14:54:00,75.0,63.7,29.80,SSW,213,1.1,0.0,68,0.00,BKN,,0.00,200.0,WeatherDisplay:10.37,2013-06-10 19:54:00,
2013-06-10 14:59:00,75.0,62.9,29.80,NNW,346,2.3,2.3,66,0.00,BKN,,0.00,202.0,WeatherDisplay:10.37,2013-06-10 19:59:00,
2013-06-10 15:04:00,74.9,64.0,29.80,NE,40,1.1,1.1,69,0.00,BKN,,0.00,308.0,WeatherDisplay:10.37,2013-06-10 20:04:00,
2013-06-10 15:09:00,75.4,62.8,29.80,SSW,200,3.5,3.5,65,0.00,BKN,,0.00,997.0,WeatherDisplay:10.37,2013-06-10 20:09:00,
2013-06-10 15:14:00,76.1,65.6,29.80,North,360,3.5,3.5,70,0.00,BKN,,0.00,979.0,WeatherDisplay:10.37,2013-06-10 20:14:00,
2013-06-10 15:19:00,76.7,63.2,29.80,South,187,2.3,2.3,63,0.00,BKN,,0.00,886.0,WeatherDisplay:10.37,2013-06-10 20:19:00,
2013-06-10 15:24:00,77.5,63.5,29.80,WNW,284,3.5,3.5,62,0.00,BKN,,0.00,884.0,WeatherDisplay:10.37,2013-06-10 20:24:00,
2013-06-10 15:30:00,77.7,61.7,29.79,NNE,16,3.5,3.5,58,0.00,BKN,,0.00,865.0,WeatherDisplay:10.37,2013-06-10 20:30:00,
2013-06-10 15:35:00,77.9,61.4,29.79,NW,307,3.5,3.5,57,0.00,BKN,,0.00,867.0,WeatherDisplay:10.37,2013-06-10 20:35:00,
2013-06-10 15:40:00,77.8,62.8,29.79,NW,321,3.5,3.5,60,0.00,BKN,,0.00,849.0,WeatherDisplay:10.37,2013-06-10 20:40:00,
2013-06-10 15:45:00,77.8,62.8,29.79,WNW,293,3.5,3.5,60,0.00,BKN,,0.00,867.0,WeatherDisplay:10.37,2013-06-10 20:45:00,
2013-06-10 15:50:00,77.7,62.7,29.80,SSW,194,3.5,3.5,60,0.00,BKN,,0.00,299.0,WeatherDisplay:10.37,2013-06-10 20:50:00,
2013-06-10 15:55:00,77.8,62.3,29.80,SSE,157,3.5,3.5,59,0.00,BKN,,0.00,853.0,WeatherDisplay:10.37,2013-06-10 20:55:00,
2013-06-10 16:00:00,77.7,62.7,29.79,SW,235,3.5,3.5,60,0.00,BKN,,0.00,796.0,WeatherDisplay:10.37,2013-06-10 21:00:00,
2013-06-10 16:05:00,78.0,62.0,29.79,ENE,61,6.9,6.9,58,0.00,BKN,,0.00,735.0,WeatherDisplay:10.37,2013-06-10 21:05:00,
2013-06-10 16:10:00,78.0,62.0,29.79,WSW,239,1.1,1.1,58,0.00,BKN,,0.00,777.0,WeatherDisplay:10.37,2013-06-10 21:10:00,
2013-06-10 16:15:00,78.0,62.0,29.79,East,96,2.3,2.3,58,0.00,BKN,,0.00,780.0,WeatherDisplay:10.37,2013-06-10 21:15:00,
2013-06-10 16:20:00,77.9,63.8,29.79,SSW,213,2.3,2.3,62,0.00,BKN,,0.00,773.0,WeatherDisplay:10.37,2013-06-10 21:20:00,
2013-06-10 16:25:00,77.7,61.3,29.79,NE,40,2.3,2.3,57,0.00,BKN,,0.00,214.0,WeatherDisplay:10.37,2013-06-10 21:25:00,
2013-06-10 16:30:00,77.4,62.4,29.79,WNW,282,4.0,4.0,60,0.00,BKN,,0.00,733.0,WeatherDisplay:10.37,2013-06-10 21:30:00,
2013-06-10 16:35:00,77.5,62.5,29.79,NW,316,2.3,2.3,60,0.00,BKN,,0.00,729.0,WeatherDisplay:10.37,2013-06-10 21:35:00,
2013-06-10 16:40:00,77.9,62.4,29.79,West,275,2.3,2.3,59,0.00,BKN,,0.00,703.0,WeatherDisplay:10.37,2013-06-10 21:40:00,
2013-06-10 16:45:00,77.9,61.9,29.79,NE,51,2.3,2.3,58,0.00,BKN,,0.00,714.0,WeatherDisplay:10.37,2013-06-10 21:45:00,
2013-06-10 16:50:00,77.7,61.3,29.79,NE,56,3.5,3.5,57,0.00,BKN,,0.00,209.0,WeatherDisplay:10.37,2013-06-10 21:50:00,
2013-06-10 16:55:00,77.9,62.4,29.78,ENE,58,1.0,1.0,59,0.00,BKN,,0.00,684.0,WeatherDisplay:10.37,2013-06-10 21:55:00,
2013-06-10 17:00:00,78.4,63.8,29.78,SSW,196,3.5,3.5,61,0.00,BKN,,0.00,603.0,WeatherDisplay:10.37,2013-06-10 22:00:00,
2013-06-10 17:05:00,78.7,63.2,29.78,SSW,195,1.1,1.1,59,0.00,FEW,,0.00,592.0,WeatherDisplay:10.37,2013-06-10 22:05:00,
2013-06-10 17:10:00,78.4,60.9,29.78,SSW,211,2.3,2.6,55,0.00,FEW,,0.00,580.0,WeatherDisplay:10.37,2013-06-10 22:10:00,
2013-06-10 17:15:00,77.7,61.7,29.78,WSW,247,2.3,2.3,58,0.00,FEW,,0.00,118.0,WeatherDisplay:10.37,2013-06-10 22:15:00,
2013-06-10 17:20:00,77.6,61.2,29.78,SSE,168,3.5,3.5,57,0.00,FEW,,0.00,587.0,WeatherDisplay:10.37,2013-06-10 22:20:00,
2013-06-10 17:25:00,77.7,62.7,29.78,West,279,6.9,6.9,60,0.00,FEW,,0.00,540.0,WeatherDisplay:10.37,2013-06-10 22:25:00,
2013-06-10 17:30:00,77.5,61.6,29.78,WSW,254,3.5,3.5,58,0.00,FEW,,0.00,107.0,WeatherDisplay:10.37,2013-06-10 22:30:00,
2013-06-10 17:35:00,77.3,61.4,29.78,WSW,254,2.3,2.3,58,0.00,FEW,,0.00,436.0,WeatherDisplay:10.37,2013-06-10 22:35:00,
2013-06-10 17:40:00,77.2,63.2,29.78,SSW,194,1.1,1.1,62,0.00,FEW,,0.00,179.0,WeatherDisplay:10.37,2013-06-10 22:40:00,
2013-06-10 17:45:00,76.8,60.4,29.78,SW,234,3.5,3.5,57,0.00,FEW,,0.00,105.0,WeatherDisplay:10.37,2013-06-10 22:45:00,
2013-06-10 17:50:00,76.5,62.0,29.78,WNW,296,2.3,2.3,61,0.00,FEW,,0.00,102.0,WeatherDisplay:10.37,2013-06-10 22:50:00,
2013-06-10 17:55:00,76.2,61.8,29.78,North,355,1.1,1.1,61,0.00,FEW,,0.00,134.0,WeatherDisplay:10.37,2013-06-10 22:55:00,
2013-06-10 18:00:00,75.8,61.8,29.78,SW,223,3.5,3.5,62,0.00,FEW,,0.00,120.0,WeatherDisplay:10.37,2013-06-10 23:00:00,
2013-06-10 18:05:00,75.7,60.8,29.78,SW,232,1.1,1.1,60,0.00,FEW,,0.00,88.0,WeatherDisplay:10.37,2013-06-10 23:05:00,
2013-06-10 18:10:00,75.5,61.1,29.78,WSW,242,1.1,1.1,61,0.00,FEW,,0.00,74.0,WeatherDisplay:10.37,2013-06-10 23:10:00,
2013-06-10 18:15:00,75.4,61.5,29.78,SW,229,1.1,1.1,62,0.00,FEW,,0.00,62.0,WeatherDisplay:10.37,2013-06-10 23:15:00,
2013-06-10 18:20:00,75.2,63.9,29.78,SSW,209,2.3,2.3,68,0.00,BKN,,0.00,70.0,WeatherDisplay:10.37,2013-06-10 23:20:00,
2013-06-10 18:25:00,74.7,62.1,29.79,SW,236,1.1,1.1,65,0.00,BKN,,0.00,62.0,WeatherDisplay:10.37,2013-06-10 23:25:00,
2013-06-10 18:30:00,74.4,61.9,29.79,SSW,211,3.0,3.0,65,0.00,BKN,,0.00,70.0,WeatherDisplay:10.37,2013-06-10 23:30:00,
2013-06-10 18:35:00,74.4,62.3,29.79,WSW,238,3.5,3.5,66,0.00,BKN,,0.00,76.0,WeatherDisplay:10.37,2013-06-10 23:35:00,
2013-06-10 18:40:00,74.1,64.9,29.79,West,259,0.0,0.0,73,0.00,BKN,,0.00,69.0,WeatherDisplay:10.37,2013-06-10 23:40:00,
2013-06-10 18:45:00,73.5,64.7,29.79,West,259,1.0,0.0,74,0.00,BKN,,0.00,81.0,WeatherDisplay:10.37,2013-06-10 23:45:00,
2013-06-10 18:50:00,72.9,62.5,29.79,West,259,0.0,0.0,70,0.00,BKN,,0.00,51.0,WeatherDisplay:10.37,2013-06-10 23:50:00,
2013-06-10 18:55:00,72.6,61.0,29.79,NNW,342,2.3,2.3,67,0.00,BKN,,0.00,47.0,WeatherDisplay:10.37,2013-06-10 23:55:00,
2013-06-10 19:00:00,72.3,62.8,29.79,NNW,342,0.0,0.0,72,0.00,BKN,,0.00,46.0,WeatherDisplay:10.37,2013-06-11 00:00:00,
2013-06-10 19:05:00,72.1,63.0,29.79,NNE,16,1.0,1.0,73,0.00,CLR,,0.00,19.0,WeatherDisplay:10.37,2013-06-11 00:05:00,
2013-06-10 19:10:00,72.1,62.2,29.79,WSW,242,1.1,0.0,71,0.00,CLR,,0.00,26.0,WeatherDisplay:10.37,2013-06-11 00:10:00,
2013-06-10 19:15:00,71.8,61.9,29.79,WSW,242,0.0,0.0,71,0.00,CLR,,0.00,51.0,WeatherDisplay:10.37,2013-06-11 00:15:00,
2013-06-10 19:20:00,71.3,63.3,29.79,WSW,242,0.0,0.0,76,0.00,CLR,,0.00,49.0,WeatherDisplay:10.37,2013-06-11 00:20:00,
2013-06-10 19:25:00,70.7,63.9,29.79,WSW,242,0.0,0.0,79,0.00,CLR,,0.00,51.0,WeatherDisplay:10.37,2013-06-11 00:25:00,
2013-06-10 19:30:00,70.1,63.3,29.79,WSW,242,0.0,0.0,79,0.00,CLR,,0.00,49.0,WeatherDisplay:10.37,2013-06-11 00:30:00,
2013-06-10 19:35:00,69.9,63.4,29.79,WSW,242,0.0,0.0,80,0.00,CLR,,0.00,54.0,WeatherDisplay:10.37,2013-06-11 00:35:00,
2013-06-10 19:40:00,69.7,64.0,29.79,WSW,242,0.0,0.0,82,0.00,CLR,,0.00,47.0,WeatherDisplay:10.37,2013-06-11 00:40:00,
2013-06-10 19:45:00,69.4,63.7,29.79,WSW,242,0.0,0.0,82,0.00,CLR,,0.00,44.0,WeatherDisplay:10.37,2013-06-11 00:45:00,
2013-06-10 19:50:00,69.1,62.7,29.79,WSW,242,0.0,0.0,80,0.00,CLR,,0.00,35.0,WeatherDisplay:10.37,2013-06-11 00:50:00,
2013-06-10 19:55:00,68.9,62.5,29.79,WSW,242,0.0,0.0,80,0.00,CLR,,0.00,32.0,WeatherDisplay:10.37,2013-06-11 00:55:00,
2013-06-10 20:00:00,68.8,62.7,29.79,WSW,242,0.0,0.0,81,0.00,CLR,,0.00,21.0,WeatherDisplay:10.37,2013-06-11 01:00:00,
2013-06-10 20:05:00,68.6,62.9,29.79,WSW,242,0.0,0.0,82,0.00,SCT,,0.00,12.0,WeatherDisplay:10.37,2013-06-11 01:05:00,
2013-06-10 20:10:00,68.3,62.6,29.79,WSW,242,0.0,0.0,82,0.00,SCT,,0.00,16.0,WeatherDisplay:10.37,2013-06-11 01:10:00,
2013-06-10 20:15:00,68.1,62.4,29.79,WSW,242,0.0,0.0,82,0.00,SCT,,0.00,11.0,WeatherDisplay:10.37,2013-06-11 01:15:00,
2013-06-10 20:20:00,67.9,62.5,29.79,WSW,242,0.0,0.0,83,0.00,SCT,,0.00,9.0,WeatherDisplay:10.37,2013-06-11 01:20:00,
2013-06-10 20:25:00,67.6,62.3,29.80,WSW,242,0.0,0.0,83,0.00,SCT,,0.00,7.0,WeatherDisplay:10.37,2013-06-11 01:25:00,
2013-06-10 20:30:00,67.4,62.4,29.80,WSW,242,0.0,0.0,84,0.00,SCT,,0.00,5.0,WeatherDisplay:10.37,2013-06-11 01:30:00,
2013-06-10 20:35:00,67.2,62.2,29.80,WSW,242,0.0,0.0,84,0.00,SCT,,0.00,5.0,WeatherDisplay:10.37,2013-06-11 01:35:00,
2013-06-10 20:40:00,67.0,62.3,29.80,WSW,242,0.0,0.0,85,0.00,SCT,,0.00,0.0,WeatherDisplay:10.37,2013-06-11 01:40:00,
2013-06-10 20:45:00,66.8,62.5,29.80,WSW,242,0.0,0.0,86,0.00,SCT,,0.00,0.0,WeatherDisplay:10.37,2013-06-11 01:45:00,
2013-06-10 20:50:00,66.6,62.6,29.80,WSW,242,0.0,0.0,87,0.00,SCT,,0.00,0.0,WeatherDisplay:10.37,2013-06-11 01:50:00,
2013-06-10 20:55:00,66.3,62.3,29.80,WSW,242,0.0,0.0,87,0.00,SCT,,0.00,0.0,WeatherDisplay:10.37,2013-06-11 01:55:00,
2013-06-10 21:00:00,66.1,61.8,29.80,WSW,242,0.0,0.0,86,0.00,SCT,,0.00,0.0,WeatherDisplay:10.37,2013-06-11 02:00:00,
2013-06-10 21:06:00,65.9,61.9,29.80,WSW,242,0.0,0.0,87,0.00,BKN,,0.00,0.0,WeatherDisplay:10.37,2013-06-11 02:06:00,
2013-06-10 21:11:00,65.6,61.3,29.80,WSW,242,0.0,0.0,86,0.00,BKN,,0.00,0.0,WeatherDisplay:10.37,2013-06-11 02:11:00,
2013-06-10 21:16:00,65.4,61.4,29.80,WSW,242,0.0,0.0,87,0.00,BKN,,0.00,0.0,WeatherDisplay:10.37,2013-06-11 02:16:00,
2013-06-10 21:21:00,65.1,61.1,29.80,WSW,242,0.0,0.0,87,0.00,BKN,,0.00,0.0,WeatherDisplay:10.37,2013-06-11 02:21:00,
2013-06-10 21:26:00,64.9,60.9,29.81,WNW,292,0.0,0.0,87,0.00,BKN,,0.00,0.0,WeatherDisplay:10.37,2013-06-11 02:26:00,
2013-06-10 21:31:00,64.9,61.3,29.81,WNW,292,0.0,0.0,88,0.00,BKN,,0.00,0.0,WeatherDisplay:10.37,2013-06-11 02:31:00,
2013-06-10 21:36:00,64.8,61.2,29.81,WNW,287,0.0,0.0,88,0.00,BKN,,0.00,0.0,WeatherDisplay:10.37,2013-06-11 02:36:00,
2013-06-10 21:41:00,64.5,60.9,29.81,WNW,287,0.0,0.0,88,0.00,BKN,,0.00,0.0,WeatherDisplay:10.37,2013-06-11 02:41:00,
2013-06-10 21:46:00,64.2,60.9,29.81,WNW,287,0.0,0.0,89,0.00,BKN,,0.00,0.0,WeatherDisplay:10.37,2013-06-11 02:46:00,
2013-06-10 21:51:00,64.0,60.7,29.82,WNW,287,0.0,0.0,89,0.00,BKN,,0.00,0.0,WeatherDisplay:10.37,2013-06-11 02:51:00,
2013-06-10 21:56:00,63.9,60.9,29.82,WNW,287,0.0,0.0,90,0.00,BKN,,0.00,0.0,WeatherDisplay:10.37,2013-06-11 02:56:00,
2013-06-10 22:01:00,63.7,60.7,29.82,WNW,287,0.0,0.0,90,0.00,SCT,,0.00,0.0,WeatherDisplay:10.37,2013-06-11 03:01:00,
2013-06-10 22:06:00,63.5,60.5,29.82,WNW,287,0.0,0.0,90,0.00,SCT,,0.00,0.0,WeatherDisplay:10.37,2013-06-11 03:06:00,
2013-06-10 22:11:00,63.3,60.3,29.82,WNW,287,0.0,0.0,90,0.00,SCT,,0.00,0.0,WeatherDisplay:10.37,2013-06-11 03:11:00,
2013-06-10 22:16:00,63.1,60.1,29.82,WNW,287,0.0,0.0,90,0.00,SCT,,0.00,0.0,WeatherDisplay:10.37,2013-06-11 03:16:00,
2013-06-10 22:21:00,62.9,60.5,29.83,WNW,287,0.0,0.0,92,0.00,SCT,,0.00,0.0,WeatherDisplay:10.37,2013-06-11 03:21:00,
2013-06-10 22:26:00,62.8,60.1,29.82,WNW,287,0.0,0.0,91,0.00,SCT,,0.00,0.0,WeatherDisplay:10.37,2013-06-11 03:26:00,
2013-06-10 22:31:00,62.7,60.3,29.82,WNW,287,0.0,0.0,92,0.00,SCT,,0.00,0.0,WeatherDisplay:10.37,2013-06-11 03:31:00,
2013-06-10 22:36:00,62.7,60.3,29.82,WNW,287,0.0,0.0,92,0.00,SCT,,0.00,0.0,WeatherDisplay:10.37,2013-06-11 03:36:00,
2013-06-10 22:41:00,62.5,60.1,29.82,WNW,287,0.0,0.0,92,0.00,SCT,,0.00,0.0,WeatherDisplay:10.37,2013-06-11 03:41:00,
2013-06-10 22:46:00,62.4,60.0,29.82,WNW,287,0.0,0.0,92,0.00,SCT,,0.00,0.0,WeatherDisplay:10.37,2013-06-11 03:46:00,
2013-06-10 22:51:00,62.2,59.8,29.82,WNW,287,0.0,0.0,92,0.00,SCT,,0.00,0.0,WeatherDisplay:10.37,2013-06-11 03:51:00,
2013-06-10 22:56:00,62.2,59.8,29.82,WNW,287,0.0,0.0,92,0.00,SCT,,0.00,0.0,WeatherDisplay:10.37,2013-06-11 03:56:00,
2013-06-10 23:01:00,62.1,60.1,29.82,WNW,287,0.0,0.0,93,0.00,SCT,,0.00,0.0,WeatherDisplay:10.37,2013-06-11 04:01:00,
2013-06-10 23:06:00,62.0,60.0,29.82,WNW,287,0.0,0.0,93,0.00,SCT,,0.00,0.0,WeatherDisplay:10.37,2013-06-11 04:06:00,
2013-06-10 23:11:00,61.8,59.8,29.82,WNW,287,0.0,0.0,93,0.00,SCT,,0.00,0.0,WeatherDisplay:10.37,2013-06-11 04:11:00,
2013-06-10 23:16:00,61.7,59.7,29.82,WNW,287,0.0,0.0,93,0.00,SCT,,0.00,0.0,WeatherDisplay:10.37,2013-06-11 04:16:00,
2013-06-10 23:21:00,61.6,59.6,29.83,WNW,287,0.0,0.0,93,0.00,SCT,,0.00,0.0,WeatherDisplay:10.37,2013-06-11 04:21:00,
2013-06-10 23:26:00,61.5,59.5,29.83,WNW,287,0.0,0.0,93,0.00,SCT,,0.00,0.0,WeatherDisplay:10.37,2013-06-11 04:26:00,
2013-06-10 23:32:00,61.3,59.3,29.82,WNW,287,0.0,0.0,93,0.00,CLR,,0.00,0.0,WeatherDisplay:10.37,2013-06-11 04:32:00,
2013-06-10 23:37:00,61.2,59.2,29.82,WNW,287,0.0,0.0,93,0.00,CLR,,0.00,0.0,WeatherDisplay:10.37,2013-06-11 04:37:00,
2013-06-10 23:42:00,60.9,58.6,29.83,WNW,287,0.0,0.0,92,0.00,CLR,,0.00,0.0,WeatherDisplay:10.37,2013-06-11 04:42:00,
2013-06-10 23:47:00,60.7,58.7,29.83,WNW,287,0.0,0.0,93,0.00,CLR,,0.00,0.0,WeatherDisplay:10.37,2013-06-11 04:47:00,
2013-06-10 23:52:00,60.5,58.5,29.83,WNW,287,0.0,0.0,93,0.00,CLR,,0.00,0.0,WeatherDisplay:10.37,2013-06-11 04:52:00,
2013-06-10 23:57:00,60.2,58.2,29.83,WNW,287,0.0,0.0,93,0.00,CLR,,0.00,0.0,WeatherDisplay:10.37,2013-06-11 04:57:00,